Location: Newark
(30.1000°N, 109.4667°E)
Time: 00:12:21
(UTC+00:00)

Vanguard 2 Rocket - Pass Details

Date: 27 February 2020
Orbit: 554 x 3326 km, 32.9° (Epoch: 28 March)

Event Time Altitude Azimuth Distance (km) Brightness Sun altitude
Rises 11:09:59 0° 250° (WSW) 7,144 13.3 -7.5°
Reaches altitude 10° 11:14:37 10° 250° (WSW) 6,235 12.6 -8.5°
Maximum altitude 11:35:21 88° 163° (SSE) 3,028 9.5 -12.9°
Enters shadow 11:48:27 18° 76° (ENE) 4,337 9.7 -15.8°
